FW7233 Weather Reports


time (UTC)temp
C
wind
direction
speed
KPH
gust
KPH
rain 1hr
cm
rain 24hr
cm
rain mn
cm
humidity
%
barometer
mb
20260504032531 12 131 0.0 4.8 0.00 0.00 0.00 60 1013.9
20260504031533 12 140 1.6 9.7 0.00 0.00 0.00 59 1013.8
20260504030530 12 132 0.0 6.4 0.00 0.00 0.00 60 1013.9
20260504024533 12 162 1.6 6.4 0.00 0.00 0.00 58 1013.8
20260504023531 12 138 1.6 6.4 0.00 0.00 0.00 57 1013.9
20260504022532 13 143 1.6 6.4 0.00 0.00 0.00 56 1013.8
20260504021533 13 143 1.6 9.7 0.00 0.00 0.00 55 1013.9
20260504020533 13 153 0.0 6.4 0.00 0.00 0.00 56 1013.9
20260504015531 13 147 1.6 9.7 0.00 0.00 0.00 56 1013.8
20260504014532 13 141 1.6 4.8 0.00 0.00 0.00 56 1014.0
20260504013533 13 146 0.0 9.7 0.00 0.00 0.00 55 1014.0
20260504012531 13 167 3.2 9.7 0.00 0.00 0.00 54 1013.7
20260504004531 14 128 1.6 11.3 0.00 0.00 0.00 55 1014.1
20260504003531 14 153 3.2 6.4 0.00 0.00 0.00 54 1014.0
20260504002531 14 107 4.8 6.4 0.00 0.00 0.00 54 1014.1
20260504000530 15 156 3.2 6.4 0.00 0.00 0.00 55 1014.0
20260503235531 15 137 0.0 6.4 0.00 0.00 0.00 56 1014.5
20260503234532 15 149 3.2 9.7 0.00 0.00 0.00 54 1014.5
20260503233531 15 127 0.0 9.7 0.00 0.00 0.00 55 1014.3
20260503232531 15 169 0.0 9.7 0.00 0.00 0.00 55 1014.6
20260503231530 15 143 3.2 9.7 0.00 0.00 0.00 57 1014.7
20260503225532 15 136 0.0 4.8 0.00 0.00 0.00 56 1014.4
20260503223531 15 116 3.2 6.4 0.00 0.00 0.00 55 1014.6
20260503222531 15 149 3.2 4.8 0.00 0.00 0.00 55 1014.4
20260503221532 15 129 0.0 3.2 0.00 0.00 0.00 55 1014.3
20260503220531 16 167 6.4 9.7 0.00 0.00 0.00 53 1014.5
20260503215534 15 163 0.0 4.8 0.00 0.00 0.00 55 1014.5
20260503214530 15 133 1.6 3.2 0.00 0.00 0.00 58 1014.4
20260503213533 15 155 3.2 3.2 0.00 0.00 0.00 58 1014.5
20260503212531 14 127 0.0 3.2 0.00 0.00 0.00 59 1014.6
20260503210533 16 124 3.2 4.8 0.00 0.00 0.00 52 1014.7
20260503205533 17 166 1.6 4.8 0.00 0.00 0.00 50 1014.8
20260503204532 17 172 1.6 3.2 0.00 0.00 0.00 49 1014.8
20260503203531 17 142 1.6 4.8 0.00 0.00 0.00 49 1014.6
20260503202531 17 122 1.6 4.8 0.00 0.00 0.00 50 1014.5
20260503201533 17 147 1.6 6.4 0.00 0.00 0.00 51 1014.8
20260503200531 17 131 0.0 4.8 0.00 0.00 0.00 51 1014.7
20260503194532 13 142 1.6 4.8 0.00 0.00 0.00 59 1014.6
20260503193530 13 126 0.0 3.2 0.00 0.00 0.00 63 1014.8
20260503192531 13 139 0.0 4.8 0.00 0.00 0.00 66 1014.7
20260503190531 16 136 0.0 3.2 0.00 0.00 0.00 57 1014.8
20260503184531 15 136 0.0 3.2 0.00 0.00 0.00 59 1014.6
20260503181530 20 128 3.2 4.8 0.00 0.00 0.00 44 1014.3
20260503180531 21 129 1.6 4.8 0.00 0.00 0.00 40 1014.3
20260503175531 21 139 0.0 6.4 0.00 0.00 0.00 39 1013.8
20260503174531 21 154 1.6 4.8 0.00 0.00 0.00 38 1014.0
20260503173531 22 143 1.6 6.4 0.00 0.00 0.00 38 1014.1
20260503172533 22 141 0.0 6.4 0.00 0.00 0.00 37 1014.0
20260503171530 23 175 3.2 4.8 0.00 0.00 0.00 38 1013.9
20260503150531 26 168 3.2 14.5 0.00 0.00 0.00 29 1014.5
20260503110531 25 172 6.4 20.9 0.00 0.00 0.00 35 1017.0
20260503080530 20 136 6.4 20.9 0.00 0.00 0.00 48 1018.2
20260503072532 19 183 3.2 11.3 0.00 0.00 0.00 54 1018.4
20260503071530 18 160 8.0 12.9 0.00 0.00 0.00 50 1018.4
20260503070531 18 143 8.0 11.3 0.00 0.00 0.00 49 1018.2
20260503054531 15 162 3.2 9.7 0.00 0.00 0.00 61 1018.2
20260503053532 14 149 4.8 12.9 0.00 0.00 0.00 63 1018.1
20260503051532 13 146 3.2 9.7 0.00 0.00 0.00 66 1018.6
20260503050543 12 137 3.2 9.7 0.00 0.00 0.00 69 1018.5
20260503044531 11 160 3.2 6.4 0.00 0.00 0.00 71 1018.6
20260503042532 9 131 1.6 4.8 0.00 0.00 0.00 81 1018.7
20260503041533 6 130 0.0 3.2 0.00 0.00 0.00 94 1018.8
20260503040533 5 124 0.0 1.6 0.00 0.00 0.00 99 1018.7
20260503033533 3 137 0.0 1.6 0.00 0.00 0.00 99 1018.8